Location: Finney State Fishing Lake and Wildlife Area
(38.1834°N, 100.3310°W)
Time: 14:53:53
(UTC+00:00)

SL-27 R/B - Pass Details

Date: 17 October 2021
Orbit: 415 x 466 km, 74.7° (Epoch: 04 December)

Event Time Altitude Azimuth Distance (km) Brightness Sun altitude
Rises 12:25:10 0° 200° (SSW) 2,347 5.9 -6.1°
Reaches altitude 10° 12:27:12 10° 203° (SSW) 1,486 4.9 -5.7°
Maximum altitude 12:30:27 71° 288° (WNW) 444 2.2 -5.1°
Drops below altitude 10° 12:33:43 10° 13° (NNE) 1,497 5.1 -4.4°
Sets 12:35:46 0° 15° (NNE) 2,368 6.2 -4.0°
